Flag for U.S.A. Weather past 2 weeks in Ontario, Oregon, U.S.A.

Now
90 °F

Sunny.


Feels Like: 86 °F
Forecast: 54 / 88 °F
Wind: No wind

Location: Ontario Municipal Airport

Current Time: Aug 27, 2014 at 5:40:41 PM

Latest Report: Aug 27, 2014 at 4:53 PM


Visibility: 10 mi

Pressure: 29.99 "Hg

Humidity: 20%

Dew point: 44 °F

Location of OntarioLocation

Historic Weather in Ontario — Graph

°F

Ontario temperature yesterday

Maximum temperature yesterday: 85 °F (at 4:53 PM)
Minimum temperature yesterday: 51 °F (at 6:53 AM)
Average temperature yesterday: 68 °F

Past Weeks' High & Low Weather Summary

 TemperatureHumidityPressure
High98 °F (Aug 18, 5:53 PM)93% (Aug 13, 2:53 AM)30.12 "Hg (Aug 13, 2:53 AM)
Low51 °F (Aug 26, 6:53 AM)10% (Aug 18, 5:53 PM)29.61 "Hg (Aug 19, 4:53 PM)
Average72 °F47%29.91 "Hg
* Reported Aug 12 3:53 PM — Aug 27 3:53 PM, Ontario, Weather by CustomWeather, © 2014

Note: Actual official high and low records may vary slightly from our data, if they occured in-between our weather recording intervals... More about our weather records

Advertising

Ontario weather history for previous 24 hours

 ConditionsComfort  
Time TempWeatherWind HumidityBarometerVisibility
3:53 PM
Aug 27
89 °FSunny.3 mph21%30.00 "Hg10 mi
2:53 PM88 °FSunny.6 mph24%30.03 "Hg10 mi
1:53 PM84 °FSunny.3 mph27%30.05 "Hg10 mi
12:53 PM81 °FSunny.No wind33%30.08 "Hg10 mi
11:53 AM77 °FSunny.No wind40%30.10 "Hg10 mi
10:53 AM71 °FSunny.No wind45%30.12 "Hg10 mi
9:53 AM66 °FSunny.No wind50%30.12 "Hg10 mi
8:53 AM58 °FSunny.No wind60%30.12 "Hg10 mi
7:53 AM51 °FClear.No wind77%30.11 "Hg10 mi
6:53 AM51 °FClear.No wind74%30.09 "Hg10 mi
5:53 AM52 °FClear.3 mph75%30.06 "Hg10 mi
4:53 AM54 °FClear.No wind72%30.05 "Hg10 mi
3:53 AM55 °FClear.No wind69%30.04 "Hg10 mi
2:53 AM58 °FClear.No wind60%30.03 "Hg10 mi
1:53 AM59 °FClear.5 mph62%30.03 "Hg10 mi
12:53 AM62 °FClear.No wind60%30.02 "Hg10 mi
11:53 PM
Aug 26
66 °FClear.5 mph52%30.01 "Hg10 mi
10:53 PM67 °FClear.No wind47%30.01 "Hg10 mi
9:53 PM69 °FClear.No wind47%30.00 "Hg10 mi
8:53 PM74 °FSunny.6 mph43%29.98 "Hg10 mi
7:53 PM80 °FSunny.5 mph36%29.98 "Hg10 mi
6:53 PM85 °FSunny.No wind26%29.98 "Hg10 mi
5:53 PM85 °FSunny.3 mph24%29.98 "Hg10 mi
Weather by CustomWeather, © 2014

See weather overviewHow to use our weather pages